Location: Ernsee
(50.8780°N, 12.0389°E)
Time: 17:37:57
(UTC+00:00)

ADEOS Rocket - Pass Details

Date: 20 January 2020
Orbit: 859 x 1306 km, 98.7° (Epoch: 27 February)

Event Time Altitude Azimuth Distance (km) Brightness Sun altitude
Rises 06:23:31 0° 199° (SSW) 3,431 5.9 -6.5°
Reaches altitude 10° 06:26:14 10° 211° (SSW) 2,492 5.1 -6.1°
Maximum altitude 06:30:48 27° 268° (W) 1,623 3.7 -5.4°
Drops below altitude 10° 06:35:31 10° 325° (NW) 2,573 4.7 -4.8°
Sets 06:38:24 0° 338° (NNW) 3,565 5.5 -4.4°
